GW1675 Weather Reports


Display with metric or nautical units.
time (UTC)temp
F
wind
direction
speed
MPH
gust
MPH
rain 1hr
in
rain 24hr
in
rain mn
in
humidity
%
barometer
mb
20260831233057 75 72 9.0 16.0 0.00 0.00 0.00 65 1019.1
20260831231600 75 70 11.0 18.0 0.00 0.00 0.00 65 1018.9
20260831230050 76 69 13.0 18.0 0.00 0.00 0.00 66 1019.0
20260831224604 76 70 12.0 20.0 0.00 0.00 0.00 66 1018.8
20260831223047 77 75 10.0 19.0 0.00 0.00 0.00 66 1018.9
20260831221556 78 79 11.0 20.0 0.00 0.00 0.00 66 1018.9
20260831220050 78 87 11.0 18.0 0.00 0.00 0.00 66 1018.9
20260831214559 79 96 9.0 15.0 0.00 0.00 0.00 66 1018.9
20260831213054 79 103 9.0 15.0 0.00 0.00 0.00 66 1019.0
20260831211554 80 152 6.0 12.0 0.00 0.00 0.00 66 1019.0
20260831210100 81 156 6.0 9.0 0.00 0.00 0.00 67 1018.8
20260831204556 81 157 5.0 9.0 0.00 0.00 0.00 67 1018.6
20260831203102 76 158 3.0 5.0 0.00 0.00 0.00 66 1018.5
20260831201551 75 0 0.0 2.0 0.00 0.00 0.00 66 1018.3
20260831194628 77 158 0.0 1.0 0.00 0.00 0.00 66 1017.9
20260831193057 78 0 0.0 0.0 0.00 0.00 0.00 66 1017.6
20260831191552 80 0 0.0 2.0 0.00 0.00 0.00 67 1017.6
20260831190122 81 158 1.0 2.0 0.00 0.00 0.00 67 1017.4
20260831184602 82 158 2.0 4.0 0.00 0.00 0.00 67 1017.4
20260831183052 83 158 3.0 6.0 0.00 0.00 0.00 67 1017.3
20260831181600 84 158 4.0 10.0 0.00 0.00 0.00 68 1017.3
20260831180055 84 158 7.0 10.0 0.00 0.00 0.00 68 1017.3
20260831174634 85 158 6.0 13.0 0.00 0.00 0.00 68 1017.4
20260831173057 85 155 6.0 10.0 0.00 0.00 0.00 68 1017.4
20260831171554 86 156 4.0 9.0 0.00 0.00 0.00 68 1017.4
20260831170100 86 156 6.0 12.0 0.00 0.00 0.00 68 1017.3
20260831164558 87 156 5.0 10.0 0.00 0.00 0.00 68 1017.4
20260831163055 88 158 5.0 12.0 0.00 0.00 0.00 69 1017.4
20260831161553 88 158 5.0 10.0 0.00 0.00 0.00 69 1017.4
20260831160059 87 158 9.0 13.0 0.00 0.00 0.00 69 1017.6
20260831154616 87 153 6.0 13.0 0.00 0.00 0.00 69 1017.7
20260831153108 87 148 6.0 13.0 0.00 0.00 0.00 69 1017.9
20260831151549 86 139 9.0 15.0 0.00 0.00 0.00 69 1018.1
20260831144559 85 110 6.0 13.0 0.00 0.00 0.00 69 1018.3
20260831143103 85 104 6.0 12.0 0.00 0.00 0.00 69 1018.4
20260831141558 85 103 6.0 11.0 0.00 0.00 0.00 69 1018.4
20260831140054 84 102 5.0 11.0 0.00 0.00 0.00 69 1018.5
20260831134611 83 102 7.0 11.0 0.00 0.00 0.00 69 1018.5
20260831133103 83 102 4.0 11.0 0.00 0.00 0.00 69 1018.7
20260831131558 82 101 5.0 12.0 0.00 0.00 0.00 69 1018.9
20260831130101 81 101 7.0 12.0 0.00 0.00 0.00 69 1019.2
20260831124556 80 98 7.0 14.0 0.00 0.00 0.00 68 1019.2
20260831123055 80 91 7.0 13.0 0.00 0.00 0.00 69 1019.3
20260831121617 80 89 6.0 13.0 0.00 0.00 0.00 69 1019.4
20260831114556 79 87 5.0 11.0 0.00 0.00 0.00 68 1019.5
20260831113105 78 86 5.0 10.0 0.00 0.00 0.00 68 1019.7
20260831111550 78 86 5.0 12.0 0.00 0.00 0.00 68 1019.9
20260831110100 77 86 7.0 10.0 0.00 0.00 0.00 68 1020.1
20260831104559 77 86 7.0 12.0 0.00 0.00 0.00 68 1020.2
20260831103055 78 84 5.0 11.0 0.00 0.00 0.00 69 1020.2
20260831101604 77 84 7.0 13.0 0.00 0.00 0.00 69 1020.1
20260831094605 79 82 6.0 10.0 0.00 0.00 0.00 69 1020.0
20260831093139 81 82 5.0 9.0 0.00 0.00 0.00 69 1019.6
20260831091559 80 82 6.0 9.0 0.00 0.00 0.00 69 1019.6
20260831090101 79 82 5.0 9.0 0.00 0.00 0.00 69 1019.5
20260831084639 78 82 3.0 8.0 0.00 0.00 0.00 69 1019.4
20260831083051 76 82 6.0 12.0 0.00 0.00 0.00 69 1019.3
20260831081602 75 82 8.0 14.0 0.00 0.00 0.00 69 1019.3
20260831080121 75 82 6.0 11.0 0.00 0.00 0.00 69 1019.3
20260831074557 74 82 4.0 11.0 0.00 0.00 0.00 68 1019.2
20260831073101 74 82 3.0 5.0 0.00 0.00 0.00 68 1019.2
20260831071601 73 82 0.0 5.0 0.00 0.00 0.00 68 1019.1
20260831070059 72 82 4.0 14.0 0.00 0.00 0.00 68 1019.0
20260831064557 72 82 7.0 16.0 0.00 0.00 0.00 68 1018.9
20260831063110 72 82 7.0 14.0 0.00 0.00 0.00 68 1018.6
20260831061557 71 82 9.0 13.0 0.00 0.00 0.00 68 1018.5
20260831060123 71 82 7.0 15.0 0.00 0.00 0.00 68 1018.5
20260831054555 71 82 7.0 15.0 0.00 0.00 0.00 68 1018.6
20260831053058 71 81 8.0 14.0 0.00 0.00 0.00 68 1018.7
20260831051555 71 82 9.0 14.0 0.00 0.00 0.00 68 1018.7
20260831050051 72 82 7.0 15.0 0.00 0.00 0.00 68 1018.6
20260831044600 72 81 7.0 15.0 0.00 0.00 0.00 68 1018.6
20260831043058 72 81 7.0 14.0 0.00 0.00 0.00 68 1018.7
20260831041551 73 81 7.0 11.0 0.00 0.00 0.00 68 1018.7
20260831040057 73 81 6.0 12.0 0.00 0.00 0.00 68 1018.8
20260831034610 73 81 6.0 12.0 0.00 0.00 0.00 69 1018.8
20260831033100 74 81 11.0 16.0 0.00 0.00 0.00 69 1018.8
20260831031600 74 80 7.0 12.0 0.00 0.00 0.00 69 1018.8
20260831030100 74 80 7.0 15.0 0.00 0.00 0.00 69 1018.9
20260831024601 74 80 8.0 16.0 0.00 0.00 0.00 69 1019.0
20260831023053 75 80 9.0 15.0 0.00 0.00 0.00 69 1019.2
20260831021601 75 80 10.0 17.0 0.00 0.00 0.00 69 1019.1
20260831014558 76 78 8.0 21.0 0.00 0.00 0.00 69 1019.1
20260831013050 76 80 9.0 16.0 0.00 0.00 0.00 69 1019.2
20260831011604 76 80 8.0 16.0 0.00 0.00 0.00 69 1019.2
20260831010107 76 79 10.0 17.0 0.00 0.00 0.00 69 1019.2
20260831004600 77 79 8.0 16.0 0.00 0.00 0.00 69 1019.2
20260831003051 77 78 7.0 15.0 0.00 0.00 0.00 69 1019.2
20260831001620 78 77 9.0 16.0 0.00 0.00 0.00 69 1019.2
20260831000059 78 77 10.0 16.0 0.00 0.00 0.00 69 1019.0
20260830234608 78 77 10.0 16.0 0.00 0.00 0.00 70 1019.1